This demonstration page uses our WeatherBlox Daily Observations layout. Learn more.

Left ArrowRight Arrow

36.17497, -115.13722

Hourly Observations for September 21, 2021

Temp ( °F °C ) Dew Point ( °F °C ) Humidity (%) Winds ( mph kmh ) Pressure ( in mb ) Visibility ( mi km ) Precip ( " mm )
12:53 am 00:53 Clear 71 21.7 30 -1.1 22 22 WNW 5 7 30.13 1020 10 16 N/A
1:53 am 01:53 Clear 70 21.1 31 -0.6 23 23 W 7 11 30.14 1021 10 16 N/A
2:53 am 02:53 Clear 70 21.1 29 -1.7 22 22 W 5 7 30.15 1021 10 16 N/A
3:53 am 03:53 Clear 71 21.7 26 -3.3 19 19 NNW 9 15 30.16 1021 10 16 N/A
4:53 am 04:53 Clear 66 18.9 27 -2.8 23 23 SE 5 7 30.19 1022 10 16 N/A
5:53 am 05:53 Clear 68 20 25 -3.9 20 20 NW 9 15 30.21 1023 10 16 N/A
6:53 am 06:53 Sunny 69 20.6 25 -3.9 19 19 NNW 9 15 30.23 1024 10 16 N/A
7:53 am 07:53 Sunny 72 22.2 26 -3.3 18 18 N N/A 30.25 1025 10 16 N/A
8:53 am 08:53 Sunny 77 25 26 -3.3 15 15 NW 10 17 30.26 1025 10 16 N/A
9:53 am 09:53 Sunny 80 26.7 24 -4.4 13 13 N N/A 30.27 1025 10 16 N/A
10:53 am 10:53 Sunny 81 27.2 21 -6.1 11 11 SW 3 6 30.27 1025 10 16 N/A
11:53 am 11:53 Sunny 85 29.4 19 -7.2 9 9 VRB 6 9 30.25 1024 10 16 N/A
12:53 pm 12:53 Sunny 88 31.1 19 -7.2 8 8 ENE 7 11 30.22 1023 10 16 N/A
1:53 pm 13:53 Sunny 88 31.1 19 -7.2 8 8 VRB 3 6 30.19 1022 10 16 N/A
2:53 pm 14:53 Sunny 89 31.7 18 -7.8 7 7 N N/A 30.16 1022 10 16 N/A
3:53 pm 15:53 Sunny 91 32.8 19 -7.2 7 7 VRB 3 6 30.15 1021 10 16 N/A
4:53 pm 16:53 Sunny 92 33.3 20 -6.7 7 7 VRB 5 7 30.14 1021 10 16 N/A
5:53 pm 17:53 Sunny 91 32.8 20 -6.7 7 7 SE 5 7 30.13 1020 10 16 N/A
6:53 pm 18:53 Clear 88 31.1 21 -6.1 8 8 E 3 6 30.13 1020 10 16 N/A
7:53 pm 19:53 Clear 86 30 22 -5.6 9 9 N N/A 30.14 1021 10 16 N/A
8:53 pm 20:53 Clear 81 27.2 30 -1.1 16 16 WNW 6 9 30.15 1021 10 16 N/A
9:53 pm 21:53 Clear 78 25.6 28 -2.2 16 16 NW 7 11 30.15 1021 10 16 N/A
10:53 pm 22:53 Clear 75 23.9 27 -2.8 17 17 WNW 5 7 30.15 1021 10 16 N/A
11:53 pm 23:53 Clear 74 23.3 29 -1.7 19 19 W 3 6 30.15 1021 10 16 N/A

Powered by AerisWeather